Overview Statistics Trail Chart Weather Telemetry Raw packets
 

This is the latest recevied weather packets stored in our database for station/object W0WC. If no packets are shown the sender has not sent any weather packets the latest 10 day(s).

<< 7 8 9 10 11 12 13 >>
Time Temp. Humidity Pressure Rain* Wind** Luminosity Snow
1788639665 38.89° C 33% 1013.8 hPa 0 mm - 176 W/m² -
1788639361 38.89° C 33% 1014.1 hPa 0 mm - 503 W/m² -
1788639060 38.89° C 33% 1014.1 hPa 0 mm - 620 W/m² -
1788638756 38.89° C 33% 1014 hPa 0 mm - 174 W/m² -
1788638450 38.89° C 34% 1014.4 hPa 0 mm - 635 W/m² -
1788638143 38.33° C 33% 1014.1 hPa 0 mm - 658 W/m² -
1788637839 38.89° C 34% 1014.1 hPa 0 mm - 672 W/m² -
1788637539 38.89° C 34% 1014.2 hPa 0 mm - 664 W/m² -
1788637238 38.33° C 34% 1014.6 hPa 0 mm - 673 W/m² -
1788636933 38.33° C 35% 1014.5 hPa 0 mm - 662 W/m² -
1788636629 38.33° C 35% 1014.6 hPa 0 mm - 677 W/m² -
1788636324 38.33° C 35% 1014.8 hPa 0 mm - 695 W/m² -
1788636020 37.22° C 36% 1014.8 hPa 0 mm - 698 W/m² -
1788635719 36.67° C 37% 1014.9 hPa 0 mm - 716 W/m² -
1788635418 37.78° C 36% 1015.1 hPa 0 mm - 121 W/m² -
1788635141 38.89° C 35% 1015.1 hPa 0 mm - 122 W/m² -
1788634815 38.33° C 35% 1015 hPa 0 mm - 726 W/m² -
1788634510 38.33° C 36% 1015 hPa 0 mm - 729 W/m² -
1788634209 37.78° C 37% 1015 hPa 0 mm - 721 W/m² -
1788633904 37.78° C 36% 1015.4 hPa 0 mm - 714 W/m² -
1788633603 37.78° C 36% 1015.3 hPa 0 mm - 722 W/m² -
1788633297 36.67° C 37% 1015.5 hPa 0 mm - 736 W/m² -
1788632992 36.11° C 38% 1015.5 hPa 0 mm - 741 W/m² -
1788632692 35.56° C 40% 1015.6 hPa 0 mm - 136 W/m² -
1788632387 36.11° C 41% 1015.7 hPa 0 mm - 132 W/m² -

* Rain latest hour (hover to see other rain measurements)
** Current wind speed in m/s (hover to see current wind gust speed)